#timestamp,LO_Frequency,Hit,StdDev 
1678730415.5,286046994.9,P
1678730435.4,286046996.7,N
1678730455.2,286046998.4,N
1678730475.0,286046998.1,N
1678730475.9,286046998.1,N
1678730495.8,286046998.2,N
1678730515.6,286046997.1,N
1678730535.5,286046997.2,N
1678730555.3,286046997.6,N
1678730575.1,286046997.2,N
1678730595.9,286046999.2,N
1678730615.7,286047001.2,N
1678730635.5,286047000.4,N
1678730655.4,286047001.1,N
1678730675.2,286046998.3,N
1678730695.1,286046998.2,N
1678730696.0,286046998.2,N
1678730715.8,286046999.5,N
1678730735.6,286046996.8,N
1678730755.5,286046995.0,Y
1678730775.3,286046998.5,P
1678730795.1,286046999.4,P
1678730815.9,286047000.8,N
1678730835.7,286047000.1,N
1678730855.6,286047002.8,N
1678730875.4,286046998.1,N
1678730895.2,286047001.2,N
1678730915.1,286046998.3,N
1678730916.0,286046998.3,N
1678730935.8,286046999.0,N
1678730955.6,286047001.2,N
1678730975.5,286046998.6,N
1678730995.3,286046997.0,N
1678731015.2,286046997.8,N
1678731035.9,286046996.9,N
1678731055.7,286046998.9,N
1678731075.6,286046999.4,N
1678731095.4,286046998.4,N
1678731115.2,286046998.4,N
1678731135.1,286046997.2,N
1678731136.0,286046997.2,N
1678731155.8,286046996.8,N
1678731175.7,286046998.7,N
1678731195.5,286046999.1,N
1678731215.3,286046996.7,N
1678731235.2,286046996.6,N
1678731255.9,286046997.0,N
1678731275.7,286046998.3,N
1678731295.6,286046999.2,N
1678731315.4,286047001.0,N
1678731335.2,286046999.1,N
1678731355.1,286046997.4,N
1678731356.0,286046997.4,N
1678731375.8,286046997.2,N
1678731395.7,286046996.5,N
1678731415.5,286046998.9,N
1678731435.3,286046997.0,N
1678731455.2,286046996.7,N
1678731475.0,286046996.5,N
1678731475.9,286046996.5,N
1678731495.8,286046995.4,Y
1678731515.6,286046999.3,P
1678731535.4,286046999.4,N
1678731555.3,286047000.8,N
1678731575.1,286046998.2,N
1678731595.8,286046999.3,N
1678731615.7,286046999.2,N
1678731635.5,286046998.3,N
1678731655.4,286046999.2,N
1678731675.2,286046996.5,Y
1678731695.0,286046999.6,P
1678731695.9,286046999.6,N
1678731715.8,286046999.6,N
1678731735.6,286046999.5,N
1678731755.5,286046998.3,Y
1678731775.3,286046998.7,P
1678731795.1,286046998.6,P
1678731815.9,286046998.5,P
1678731835.7,286046999.8,N
1678731855.5,286047002.6,Y
1678731875.4,286047004.0,P
1678731895.2,286047003.3,N
1678731915.0,286047004.4,N
1678731916.0,286047004.4,N
1678731935.8,286047002.1,N
1678731955.6,286047003.2,N
1678731975.5,286047003.2,N
1678731995.3,286046999.7,N
1678732015.1,286047000.1,N
1678732035.9,286047002.6,N
1678732055.7,286047001.5,N
1678732075.6,286047001.0,N
1678732095.4,286047000.7,N
1678732115.2,286047000.6,N
1678732135.1,286047000.4,N
1678732136.0,286047000.4,N
1678732155.8,286047000.4,N
1678732175.6,286046999.7,N
1678732195.5,286046999.7,N
1678732215.3,286047000.4,N
1678732235.2,286047002.6,N
1678732255.9,286047002.6,N
1678732275.7,286047000.9,N
1678732295.6,286047001.1,N
1678732315.4,286046998.3,N
1678732335.2,286046998.3,N
1678732355.1,286046998.8,N
1678732356.0,286046998.8,N
1678732375.8,286046999.1,N
1678732395.7,286046996.6,N
1678732415.5,286046998.7,N
1678732435.3,286046999.4,N
1678732455.2,286046998.9,N
1678732475.9,286046998.1,N
1678732495.7,286046998.1,N
1678732515.6,286046998.4,N
1678732535.4,286046998.8,N
1678732555.3,286046998.5,N
1678732575.1,286046999.3,N
1678732576.0,286046999.3,N
1678732595.8,286046997.7,N
1678732615.7,286046997.9,N
1678732635.5,286047000.5,N
1678732655.3,286046999.3,N
1678732675.2,286046999.0,N
1678732695.0,286046997.2,N
1678732695.9,286046997.2,N
1678732715.8,286046997.9,N
1678732735.6,286046994.9,Y
1678732755.4,286046996.9,P
1678732775.3,286046999.5,N
1678732795.1,286046996.9,N
1678732815.8,286046997.8,N
1678732835.7,286046998.4,N
1678732855.5,286046998.7,N
1678732875.4,286046999.5,N
1678732895.2,286046998.8,N
1678732915.0,286046998.9,N
1678732915.9,286046998.9,N
1678732935.8,286046997.2,Y
1678732955.6,286047001.0,P
1678732975.4,286046999.9,N
1678732995.3,286046998.2,N
1678733015.1,286046998.6,N
1678733035.9,286047001.0,N
1678733055.7,286047000.3,N
1678733075.5,286047000.6,N
1678733095.4,286047000.2,N
1678733115.2,286046998.8,N
1678733135.0,286046998.2,N
1678733135.9,286046998.2,N
1678733155.8,286047000.4,N
1678733175.6,286046998.1,N
1678733195.5,286047000.7,N
1678733215.3,286047000.8,N
1678733235.1,286047000.2,N
1678733255.9,286046998.2,N
1678733275.7,286046998.8,N
1678733295.5,286046998.8,N
1678733315.4,286047000.2,N
1678733335.2,286047001.2,N
1678733355.1,286046998.4,N
1678733356.0,286046998.4,N
1678733375.8,286046998.4,N
1678733395.6,286046998.7,N
1678733415.5,286046998.2,N
1678733435.3,286046998.6,N
1678733455.1,286046998.5,N
1678733475.9,286046996.5,Y
1678733495.7,286046998.4,P
1678733515.6,286046998.4,P
1678733535.4,286047000.0,N
1678733555.2,286047000.1,N
1678733575.1,286047000.4,N
1678733576.0,286047000.4,N
1678733595.8,286046999.8,N
1678733615.7,286047000.8,N
1678733635.5,286046998.2,N
1678733655.3,286046998.4,N
1678733675.2,286046999.5,N
1678733695.9,286046999.2,N
1678733715.7,286046999.6,N
1678733735.6,286046996.9,Y
1678733755.4,286046997.2,P
1678733775.3,286046997.7,N
1678733795.1,286046997.3,N
1678733796.0,286046997.3,N
1678733815.8,286046996.9,Y
1678733835.7,286047000.7,P
1678733855.5,286047002.2,N
1678733875.3,286047001.5,N
1678733895.2,286047002.4,N
1678733915.0,286046999.9,N
1678733915.9,286046999.9,N
1678733935.8,286047000.7,N
1678733955.6,286047000.6,N
1678733975.4,286046998.2,N
1678733995.3,286046998.8,N
